Overview Statistics Trail Chart Weather Telemetry Raw packets
 

This is the latest recevied weather packets stored in our database for station/object 4S6DRJ-13. If no packets are shown the sender has not sent any weather packets the latest 10 day(s).

<< 166 167 168 169 170 171 172 >>
Time Temp. Humidity Pressure Rain* Wind** Luminosity Snow
1788214894 26.67° C 89% 1007.1 hPa 0 mm 0.89 m/s, 133° 0 W/m² -
1788214834 26.67° C 89% 1007.3 hPa 0 mm 0.45 m/s, 159° 0 W/m² -
1788214773 26.67° C 89% 1007.3 hPa 0 mm 0.45 m/s, 137° 0 W/m² -
1788214712 26.67° C 89% 1007.2 hPa 0 mm 0.45 m/s, 174° 0 W/m² -
1788214652 26.67° C 89% 1007.3 hPa 0 mm 0.45 m/s, 169° 0 W/m² -
1788214591 26.67° C 89% 1007.3 hPa 0 mm 0.89 m/s, 165° 0 W/m² -
1788214529 26.67° C 89% 1007.3 hPa 0 mm 0.89 m/s, 181° 0 W/m² -
1788214468 26.67° C 89% 1007.4 hPa 0 mm 0 m/s 0 W/m² -
1788214407 26.67° C 89% 1007.1 hPa 0 mm 0.45 m/s, 146° 0 W/m² -
1788214346 26.67° C 89% 1007.3 hPa 0 mm 0 m/s 0 W/m² -
1788214285 26.67° C 89% 1007.4 hPa 0 mm 0.45 m/s, 179° 0 W/m² -
1788214224 26.67° C 89% 1007.2 hPa 0 mm 0.89 m/s, 142° 0 W/m² -
1788214163 26.67° C 89% 1007.2 hPa 0 mm 0 m/s 0 W/m² -
1788214102 26.67° C 89% 1007.1 hPa 0 mm 0.45 m/s, 136° 0 W/m² -
1788214042 26.67° C 89% 1007.3 hPa 0 mm 0.45 m/s, 145° 0 W/m² -
1788213980 26.67° C 89% 1007.3 hPa 0 mm 0.45 m/s, 150° 0 W/m² -
1788213919 26.67° C 89% 1007.2 hPa 0 mm 0.89 m/s, 147° 0 W/m² -
1788213858 26.67° C 89% 1007.4 hPa 0 mm 0.45 m/s, 152° 0 W/m² -
1788213797 26.67° C 89% 1007.7 hPa 0 mm 0.45 m/s, 152° 0 W/m² -
1788213736 26.67° C 89% 1007.3 hPa 0 mm 0.45 m/s, 185° 0 W/m² -
1788213675 26.67° C 89% 1007.5 hPa 0 mm 0 m/s 0 W/m² -
1788213614 26.67° C 89% 1007.4 hPa 0 mm 0.89 m/s, 151° 0 W/m² -
1788213553 26.67° C 88% 1007.5 hPa 0 mm 0.89 m/s, 122° 0 W/m² -
1788213492 26.67° C 88% 1007.3 hPa 0 mm 0.45 m/s, 111° 0 W/m² -
1788213431 26.67° C 88% 1007.5 hPa 0 mm 0.45 m/s, 134° 0 W/m² -

* Rain latest hour (hover to see other rain measurements)
** Current wind speed in m/s (hover to see current wind gust speed)